Hourly Data Report for October 06, 2021

DRYDEN REGIONAL
ONTARIO
Current Station Operator: NAVCAN

49°49'39.000" N
92°44'39.000" W
412.70 m
6032125
71527
YHD

Download Data

Hourly Data (October 2021)
Hourly Data Report for October 6, 2021
TIME
LST
Temp Definition
°C
Dew Point Definition
°C
Rel Hum Definition
%
Precip. Amount Definition
mm

Wind Dir Definition
10's deg

Wind Spd Definition
km/h
Visibility Definition
km
Stn Press Definition
kPa
Hmdx Definition


Wind Chill Definition


Weather Definition


00:00 14.4 10.7 78 0.0 17 15 16.1 97.31     LegendNANA
01:00 14.1 10.9 81 0.0 17 13 16.1 97.31     LegendNANA
02:00 13.6 11.0 84 0.0 18 15 16.1 97.30     LegendNANA
03:00 13.8 11.4 85 0.0 19 15 16.1 97.30     LegendNANA
04:00 13.6 11.7 88 0.0 19 17 16.1 97.29     LegendNANA
05:00 13.7 11.8 88 0.0 19 21 16.1 97.28     LegendNANA
06:00 13.6 11.8 89 0.0 19 26 16.1 97.27     LegendNANA
07:00 13.7 11.9 89 0.0 19 26 16.1 97.29     LegendNANA
08:00 15.0 12.2 83 0.0 19 28 16.1 97.29     LegendNANA
09:00 16.3 12.3 77 0.0 19 28 16.1 97.28     LegendNANA
10:00 18.5 12.8 69 0.0 18 30 16.1 97.27     LegendNANA
11:00 19.9 12.9 64 0.0 19 24 16.1 97.25     LegendNANA
12:00 21.3 13.1 59 0.0 18 24 16.1 97.21     LegendNANA
13:00 22.2 13.1 56 0.0 18 21 16.1 97.16 25   LegendNANA
14:00 22.5 12.9 54 0.0 20 18 16.1 97.12 25   LegendNANA
15:00 22.8 12.7 52 0.0 20 18 16.1 97.09 25   LegendNANA
16:00 22.0 12.1 53 0.0 19 21 16.1 97.06     LegendNANA
17:00 20.6 13.2 62 0.0 19 17 16.1 97.06     LegendNANA
18:00 18.9 13.2 69 0.0 18 13 16.1 97.08     LegendNANA
19:00 18.0 12.7 71 0.0 17 13 16.1 97.08     LegendNANA
20:00 17.2 13.0 76 0.0 17 15 16.1 97.10     LegendNANA
21:00 16.3 12.9 80 0.0 18 17 16.1 97.10     LegendNANA
22:00 15.5 12.7 83 0.0 18 15 16.1 97.12     LegendNANA
23:00 14.8 12.5 86 0.0 19 13 16.1 97.13     LegendNANA

Notes on Data Quality.

Legend

  • E = Estimated
  • M = Missing
  • NA = Not Available*
  • [empty] = Indicates an unobserved value
Date modified: